Regional Weather Roundup
Issued by NWS Upton, NY

Current Version | Previous Version | Graphics & Text | Print | Product List | Glossary Off
Versions: 1 2 3 4 5 6 7 8 9 10 11 12 13 14 15 16 17 18 19 20 21 22 23 24 25 26 27

000
ASUS41 KOKX 241005
RWROKX

Regional Weather Roundup
National Weather Service New York NY
600 AM EDT TUE APR 24 2018

Note: "FAIR" indicates few or no clouds below 12,000 feet with no
significant weather and/or obstructions to visibility.

NYZ071-072-176-178-NJZ106-104-241100-
New York City Metro Area

CITY           SKY/WX    TMP DP  RH WIND       PRES   REMARKS
Central Park   FAIR      47  42  83 CALM      30.43R
Bronx Bot Gard   N/A     41  41 100 NE2       30.41
Bronx Lehman C   N/A     46  41  81 E2          N/A
LaGuardia Arpt FAIR      47  42  83 VRB5      30.40S
Queens College   N/A     45  43  93 SE5         N/A
Kennedy Intl   MOCLDY    42  42 100 E3        30.42R
Breezy Point     N/A     45 N/A N/A E5          N/A
Brooklyn Coll    N/A     46  43  87 E5          N/A
Staten Island    N/A     45  41  87 N2          N/A
Newark/Liberty MOCLDY    48  43  82 CALM      30.40S
Teterboro      FAIR      42  37  82 CALM      30.40R
$$

NYZ177-179-078>081-241100-
Long Island New York

CITY           SKY/WX    TMP DP  RH WIND       PRES   REMARKS
Jones Beach      N/A     45 N/A N/A E3          N/A
Wantagh          N/A     39  37  93 NE3         N/A
Hempstead        N/A     43  41  93 SE1       30.43
Matinecock Pt    N/A     43 N/A N/A E2          N/A
Farmingdale    FAIR      38  37  97 CALM      30.41S
MacArthur/ISP  FAIR      36  36 100 NE3       30.41S
Stony Brook      N/A     39  39 100 CALM        N/A
Shirley        FAIR      34  33  96 CALM      30.42S
Mt Sinai Harb    N/A    N/A N/A N/A S1          N/A
Westhampton    FOG       25  22  88 CALM      30.44R VSB 3/4
East Hampton   FAIR      28  26  91 CALM      30.42R
Southold         N/A     39  37  93 N1          N/A
Montauk          N/A     44  41  89 S3        30.43S
$$

NYZ052-065-067-241100-
Hudson Valley

CITY           SKY/WX    TMP DP  RH WIND       PRES   REMARKS
White Plains   FAIR      37  35  92 CALM      30.39S
Larchmont Harb   N/A     41 N/A N/A N2          N/A
Croton On Huds   N/A     37 N/A N/A CALM        N/A
Somers           N/A     37  36  93 E1          N/A
Brewster         N/A     34  32  93 NW1         N/A
Newburgh       CLEAR     37  34  87 CALM      30.39R
Montgomery     FAIR      32  29  88 CALM      30.37S
Otisville        N/A     32  32 100 W1          N/A
Warwick          N/A     34  32  93 SW1         N/A
Suffern          N/A     39  37  93 NE1         N/A
Poughkeepsie   FAIR      34  30  85 CALM      30.39R
Albany         FAIR      45  26  47 S6        30.36R
$$

NJZ001-105-106-008-010-013-015-019>022-104-241100-
New Jersey

CITY           SKY/WX    TMP DP  RH WIND       PRES   REMARKS
Newark/Liberty MOCLDY    48  43  82 CALM      30.40S
Teterboro      FAIR      42  37  82 CALM      30.40R
Caldwell       FAIR      37  34  89 CALM      30.41R
Somerville     FAIR      33  32  96 N3        30.39R
Linden         FAIR      43  40  89 CALM      30.41R
Perth Amboy      N/A     45 N/A N/A E3          N/A
Sussex         FAIR      32  29  88 CALM      30.39R
Andover          N/A     36  32  85 CALM      30.39R
Trenton        FAIR      40  33  76 N3        30.38S
Millville      FAIR      39  34  82 CALM      30.36S
Atlantic City  FAIR      46  39  76 SE7       30.38R
Wrightstown    NOT AVBL
Toms River     FAIR      27  25  92 CALM      30.39F
Belmar         FAIR      40  39  97 E5        30.40S
$$

PAZ047>061-062-071-241100-
Eastern Pennsylvania

CITY           SKY/WX    TMP DP  RH WIND       PRES   REMARKS
Philadelphia   MOCLDY    42  36  79 E3        30.38S
Allentown      FAIR      38  26  62 NE6       30.37R WCI  33
Scranton       FAIR      47  23  38 CALM      30.35R
$$

CTZ002-004>006-009-010-012-RIZ004-006-007-MAZ004-011-015-241100-
Southern New England

 In CT

CITY           SKY/WX    TMP DP  RH WIND       PRES   REMARKS
Bradley Intl   FAIR      37  33  85 S3        30.40S
Hartford       FAIR      35  32  88 CALM      30.42R
Danbury        FAIR      32  29  88 CALM      30.42R
Wtrbury/Oxford FAIR      37  36  96 S3        30.41R
Norwalk Harbor   N/A     37 N/A N/A N6          N/A  WCI  33
Bridgeport     FAIR      40  37  89 N3        30.42R
Meriden        FAIR      32  31  96 CALM      30.42S
New Haven      FAIR      36  33  89 CALM      30.42R
Chester        FAIR      37  36  93 CALM      30.42R
Groton         FAIR      33  33 100 CALM      30.42S FOG
Willimantic    FAIR      31  27  85 CALM      30.43S

 In RI

CITY           SKY/WX    TMP DP  RH WIND       PRES   REMARKS
Providence     FAIR      37  35  92 CALM      30.43R
Block Island   FAIR      43  39  86 S7        30.43S
Westerly       FOG       31  31 100 CALM      30.43S VSB 1

In MA

CITY           SKY/WX    TMP DP  RH WIND       PRES   REMARKS
Boston         FAIR      43  32  65 SW8       30.40S
Worcester      FAIR      41  26  55 W14       30.37S
Westfield      FAIR      31  28  89 CALM      30.40R
Provincetown   FAIR      42  36  79 S8        30.43S
Nantucket      FAIR      39  39 100 CALM      30.45R
$$

ANZ330-335-338-340-345-350-353-355-241100-
Coastal Marine Observations


STATION/POSITION TIME  SKY/WX   TEMP    WIND        PRES    VSBY  WAVE
                                AIR SEA DIR/SP/G                  HT/PER
                 (UTC)          (F)     (DEG/KT/KT) (MB)    (MI)  (FT/S)
NY Harb Entrance 0950            46 46   70/  2/  4 1029.7          1/ 9
20 S Fire Island 0950            47 44  140/  6/  6 1029.8          1/15
23 SSW Montauk P 0950            45 43  170/  6/  6 1030.4          1/ 8
15 E Barnegat Li 0930               46                N/A           1/12
Hudson Canyon    0950            49 46  120/  8/ 10 1029.2          1/ 9
Kings Point      0936            44 47   CALM  /  2 1030.7
Execution Rocks  NOT AVBL
Western LI Sound NOT AVBL
Central LI Sound 0945            43      70/  4/  6   N/A           0
Robbins Reef     0936            46     130/  2/  2 1030.1
$$


>>>>>>>>>>>>>>>>>>>>>>>>>>>> KEY <<<<<<<<<<<<<<<<<<<<<<<<<<<
>                                                          <
>     SKY/WX - Sky Condition/Present Weather               <
>     TMP    - Temperature in Fahrenheit                   <
>     DP     - Dew Point in Fahrenheit                     <
>     RH     - Relative Humidity in Percent                <
>     WIND   - Direction (from) and Speed in MPH           <
>     PRES   - Mean Sea Level Pressure (inches of Hg)      <
>     WCI    - Wind Chill Index                            <
>     VSB    - Visibility in Miles                         <
>     HX     - Heat Index                                  <
>     TC     - Temperature in Celsius                      <
>     VRB    - Varibale Wind Direction                     <
>                                                          <
>>>>>>>>>>>>>>>>>>>>>>>>>>>> KEY <<<<<<<<<<<<<<<<<<<<<<<<<<<




USA.gov is the U.S. government's official web portal to all federal, state and local government web resources and services.